Hourly Data Report for December 11, 2006

TORONTO CITY
ONTARIO

43°40'00.000" N
79°24'00.000" W
112.50 m
6158355
71508
XTO

Download Data

Hourly Data (December 2006)
Hourly Data Report for December 11, 2006
TIME
LST
Temp Definition
°C
Dew Point Definition
°C
Rel Hum Definition
%
Precip. Amount Definition
mm

Wind Dir Definition
10's deg

Wind Spd Definition
km/h
Visibility Definition
km
Stn Press Definition
kPa
Hmdx Definition


Wind Chill Definition


Weather Definition


00:00 6.9 -1.7 54   LegendMM LegendMM   101.08     LegendNANA
01:00 5.3 0.5 71   LegendMM LegendMM   101.12     LegendNANA
02:00 4.3 2.1 86   LegendMM LegendMM   101.19     LegendNANA
03:00 4.3 1.8 84   LegendMM LegendMM   101.21     LegendNANA
04:00 4.3 2.0 85   LegendMM LegendMM   101.22     LegendNANA
05:00 4.3 1.5 82   LegendMM LegendMM   101.27     LegendNANA
06:00 4.4 1.6 82   LegendMM LegendMM   101.37     LegendNANA
07:00 3.4 2.3 92   LegendMM LegendMM   101.43     LegendNANA
08:00 3.3 2.7 96   LegendMM LegendMM   101.51     LegendNANA
09:00 3.6 3.2 97   LegendMM LegendMM   101.57     LegendNANA
10:00 4.0 3.5 97   LegendMM LegendMM   101.62     LegendNANA
11:00 4.8 2.8 87   LegendMM LegendMM   101.64     LegendNANA
12:00 5.0 3.3 89   LegendMM LegendMM   101.63     LegendNANA
13:00 5.0 3.0 87   LegendMM LegendMM   101.65     LegendNANA
14:00 5.2 3.1 86   LegendMM LegendMM   101.65     LegendNANA
15:00 5.4 3.5 88   LegendMM LegendMM   101.66     LegendNANA
16:00 5.3 3.3 87   LegendMM LegendMM   101.73     LegendNANA
17:00 5.4 3.3 86   LegendMM LegendMM   101.80     LegendNANA
18:00 5.6 3.6 87   LegendMM LegendMM   101.85     LegendNANA
19:00 5.7 3.0 83   LegendMM LegendMM   101.89     LegendNANA
20:00 5.6 2.9 83   LegendMM LegendMM   101.91     LegendNANA
21:00 5.5 3.5 87   LegendMM LegendMM   101.90     LegendNANA
22:00 5.4 3.6 88   LegendMM LegendMM   101.89     LegendNANA
23:00 5.6 4.5 93   LegendMM LegendMM   101.93     LegendNANA

Notes on Data Quality.

Legend

  • E = Estimated
  • M = Missing
  • NA = Not Available*
  • [empty] = Indicates an unobserved value
Date modified: